Regional Weather Roundup
Issued by NWS Little Rock, AR

Home | Current Version | Previous Version | Text Only | Print | Product List | Glossary On
Versions: 1 2 3 4 5 6 7 8 9 10 11 12 13 14 15 16 17 18 19 20 21 22 23 24 25 26 27 28 29 30 31
000
ASUS44 KLZK 210405
RWRLZK

WEATHER ROUNDUP FOR ARKANSAS
NATIONAL WEATHER SERVICE LITTLE ROCK AR
1100 PM CDT FRI APR 20 2018

NOTE: "FAIR" INDICATES FEW OR NO CLOUDS BELOW 12,000 FEET WITH NO
SIGNIFICANT WEATHER AND/OR OBSTRUCTIONS TO VISIBILITY.

ARZ001-003-010-029-210500-
NORTHWEST ARKANSAS

CITY           SKY/WX    TMP DP  RH WIND       PRES   REMARKS
FAYETTEVILLE   CLOUDY    57  25  29 SE8       30.16S
FORT SMITH     CLEAR     57  34  41 E9        30.16S
HARRISON       CLOUDY    51  22  31 E8        30.21F
BENTONVILLE    MOCLDY    58  23  26 E15       30.18S
ROGERS         PTCLDY    58  23  26 E15G23    30.16S
SILOAM SPGS    PTCLDY    55  27  34 SE9       30.16R
HIGHFILL       CLOUDY    56  26  31 E12       30.16R
$$

ARZ004-005-016-210500-
NORTH CENTRAL ARKANSAS

CITY           SKY/WX    TMP DP  RH WIND       PRES   REMARKS
BATESVILLE     CLOUDY    52  31  44 CALM      30.26R
FLIPPIN        CLOUDY    54  25  32 E3        30.25F
MTN HOME       PTCLDY    53  24  32 E8        30.24F
$$

ARZ040-041-210500-
WEST CENTRAL ARKANSAS

CITY           SKY/WX    TMP DP  RH WIND       PRES   REMARKS
MENA           CLEAR     54  36  50 E3        30.18S
MOUNT IDA      CLEAR     51  38  60 CALM      30.16S
$$

ARZ009-017-025-026-028-210500-
NORTHEAST ARKANSAS

CITY           SKY/WX    TMP DP  RH WIND       PRES   REMARKS
CORNING        FAIR      52  36  54 NE9       30.28F
JONESBORO      FAIR      53  36  52 NE10      30.26S
NEWPORT        FAIR      51  38  60 NE9       30.25F
WALNUT RIDGE   FAIR      51  33  50 NE12      30.26F
BLYTHEVILLE    FAIR      54  34  46 E7        30.27F
$$

ARZ022-023-033-042-044-210500-
CENTRAL ARKANSAS

CITY           SKY/WX    TMP DP  RH WIND       PRES   REMARKS
LITTLE ROCK    MOCLDY    51  39  63 NE3       30.22S
N LITTLE ROCK    N/A     53  37  56 E6        30.19F
JACKSONVILLE   CLOUDY    48  39  73 CALM      30.21S
CONWAY         MOCLDY    55  34  44 E9        30.20F
SEARCY         FAIR      54  35  48 NE6       30.24S
HOT SPRINGS    CLEAR     56  37  49 E5        30.19F
RUSSELLVILLE   CLOUDY    57  28  33 E6        30.20F
CLINTON        FAIR      45  36  70 CALM      30.25S
$$

ARZ036-210500-
EAST ARKANSAS

CITY           SKY/WX    TMP DP  RH WIND       PRES   REMARKS
WEST MEMPHIS   FAIR      54  37  52 NE7       30.23F
$$

ARZ050-053-066-070-073-210500-
SOUTHWEST ARKANSAS

CITY           SKY/WX    TMP DP  RH WIND       PRES   REMARKS
ARKADELPHIA    FAIR      51  45  79 CALM      30.20S
CAMDEN         FAIR      50  41  71 CALM      30.19R
TEXARKANA      CLEAR     54  39  57 SE6       30.16F
EL DORADO      FAIR      48  45  89 CALM      30.20R
DE QUEEN       CLEAR     53  40  61 NE5       30.15S
$$

ARZ056-057-069-210500-
SOUTHEAST ARKANSAS

CITY           SKY/WX    TMP DP  RH WIND       PRES   REMARKS
PINE BLUFF     FAIR      50  44  80 NE5       30.20F
STUTTGART      FAIR      55  41  59 E7        30.22S
MONTICELLO     FAIR      50  43  77 E6        30.19F

$$






USA.gov is the U.S. government's official web portal to all federal, state and local government web resources and services.